Location: Korilkudiyirippu
(8.4785°N, 81.1109°E)
Time: 19:47:10
(UTC+00:00)

Daily predictions for brighter satellites

Satellite Brightness Start Highest point End
(mag) Time Altitude Azimuth Time Altitude Azimuth Time Altitude Azimuth
YAOGAN 6 4.3 12:32:15 10° S 12:35:36 39° W 12:38:59 10° NNW
COSMOS 2487 2.6 12:33:38 10° N 12:36:55 46° ENE 12:40:13 10° SSE
ATLAS 5 CENTAUR R/B -0.4 12:37:12 10° WNW 12:39:10 55° SSW 12:40:58 10° ESE
Cosmos 1992 Rocket 4.0 12:37:29 10° S 12:42:39 70° ESE 12:47:48 10° NNE
Cosmos 1953 Rocket 4.0 12:39:18 10° NNE 12:43:27 40° E 12:47:38 10° SSE
Cosmos 1697 Rocket 2.7 12:40:34 10° SSW 12:46:09 85° ESE 12:51:45 10° NNE
Cosmos 1850 Rocket 4.0 12:40:56 10° N 12:46:15 80° ENE 12:51:35 10° SSE
CZ-2C R/B 4.3 12:44:21 10° ENE 12:46:40 13° E 12:49:00 10° SE
SMAP 4.2 12:44:47 10° S 12:49:15 48° WSW 12:53:44 10° NNW
Cosmos 44 Rocket 3.1 12:45:05 10° SSW 12:49:42 81° ESE 12:54:23 10° NNE
NOAA 11 4.1 12:48:34 10° SSE 12:54:02 79° ENE 12:59:29 10° N
Cosmos 1553 Rocket 4.1 12:48:03 10° S 12:54:28 89° E 13:00:50 10° N
Ariane H10 2.6 12:54:37 10° SW 12:56:36 23° S 12:58:26 12° ESE
Okean O Rocket 3.4 12:53:28 10° SSW 12:57:31 36° W 13:01:32 10° NW
IRS-1C Rocket 4.2 12:55:08 10° SSE 13:00:14 52° ENE 13:05:19 10° N
ARIANE 5 R/B 4.3 12:53:30 10° WSW 13:00:46 43° S 13:03:33 14° ESE
Milstar 3 Cent rocket 4.3 12:43:49 10° WNW 13:02:18 69° SW 13:10:30 10° SE
CZ-2D R/B 3.7 12:59:05 10° SSE 13:02:39 38° ENE 13:06:12 10° N
Cosmos 1315 Rocket 2.7 12:59:01 10° S 13:02:53 63° E 13:06:45 10° NNE
YAOGAN 1 3.6 13:01:02 10° SE 13:04:26 23° ENE 13:07:50 10° NNE
USA 229 DEB 4.5 12:57:02 10° NNW 13:04:39 66° WSW 13:12:20 10° SSE
USA 229 4.4 12:57:08 10° NNW 13:04:45 67° WSW 13:12:26 10° SSE
Cosmos 1980 Rocket 2.2 13:02:39 10° S 13:08:14 63° ESE 13:13:47 10° NNE
Delta 7925 Rocket 3.8 13:02:05 10° WSW 13:08:37 71° NNW 13:12:24 19° NE
GPS 2-12 Rocket1 4.1 13:06:13 10° NW 13:10:04 29° NNE 13:11:56 21° NE
Cosmos 1812 Rocket 3.6 13:06:52 10° S 13:11:12 54° E 13:15:30 10° NNE
Cosmos 1892 3.7 13:12:22 25° E 13:12:22 25° E 13:15:17 10° SE
Meteor 2-15 Rocket 4.4 13:06:13 10° S 13:12:22 77° E 13:18:29 10° N
Hubble Space Telescope 2.1 13:10:14 10° NNW 13:13:29 22° NNE 13:14:17 21° NE
Cosmos-2242 4.4 13:10:31 10° SE 13:12:40 19° ESE 13:12:40 19° ESE
SWIFT 3.5 13:10:19 10° NW 13:13:59 27° NNE 13:15:24 23° NE
ARIANE 5 DEB (SYLDA) 4.5 13:14:04 10° WSW 13:19:28 28° SSW 13:22:00 14° SE
Cosmos 2297 Rocket 3.9 13:24:22 10° NNE 13:25:41 15° NNE 13:25:41 15° NNE
Okean-O 2.5 13:24:28 10° SSE 13:28:52 71° ENE 13:33:15 10° N
CZ-3A R/B 3.3 13:23:59 10° W 13:31:11 32° NNW 13:32:39 23° NNE
In-Cosmos 22 Rocket 4.0 13:26:33 10° N 13:31:59 72° E 13:37:35 10° S
FALCON 9 R/B 0.9 13:32:59 10° WSW 13:34:54 55° WNW 13:34:54 55° WNW
Cosmos 2278 4.2 13:29:35 10° SSW 13:35:12 62° WNW 13:40:48 10° N
Cosmos 2322 Rocket 4.2 13:35:24 10° SSE 13:36:05 12° SE 13:36:05 12° SE
SL-08 R/B 4.4 13:34:38 10° N 13:40:45 89° WSW 13:46:51 10° S
Cosmos 1745 Rocket 4.0 13:36:04 10° N 13:42:18 61° E 13:48:33 10° SSE
CZ-2C R/B 3.2 13:38:20 10° SSE 13:44:07 78° ENE 13:49:55 10° N
Helios 1A Rocket 3.7 13:41:09 10° S 13:45:11 53° WSW 13:49:12 10° NNW
Ariane H10+ 4.5 13:46:34 10° SW 13:49:37 37° SSE 13:50:48 34° SE
Cosmos 1340 3.6 13:46:14 10° NNW 13:49:51 48° W 13:53:30 10° S
H-2A R/B 3.8 13:47:50 10° NNW 13:51:39 40° NE 13:52:20 39° NE
Cosmos 2219 4.3 13:51:38 10° N 13:54:35 30° N 13:54:35 30° N
USA 276 4.2 13:54:32 10° WNW 13:56:38 27° W 13:56:38 27° W
Cosmos 1386 Rocket 4.3 13:52:01 10° N 13:58:20 83° E 14:04:34 10° S
Ariane 3 Deb 4.4 13:24:47 10° WSW 13:59:20 60° S 14:01:50 42° SE
CZ-4 R/B 3.1 14:01:52 10° SSW 14:05:27 31° W 14:08:59 10° NW
Ariane H10-3 3.1 13:49:33 10° W 14:05:53 57° S 14:06:28 53° SSE
Cosmos 2315 Rocket 4.3 14:00:13 10° SSW 14:06:24 65° W 14:12:32 10° N
SL-16 R/B 3.3 14:08:29 10° S 14:11:27 32° S 14:11:27 32° S
CSL-04 Rocket 4.2 14:11:05 10° S 14:19:24 31° NNW 14:22:09 10° NNW
H-2A R/B 3.3 14:19:14 10° S 14:28:07 19° NNW 14:29:37 10° NNW
CZ-2C R/B 3.8 14:25:14 32° NW 14:26:49 40° WNW 14:31:42 10° SW
ATLAS 3B CENTAUR R/B 4.4 14:23:40 10° SSW 14:29:00 31° SSE 14:29:00 31° SSE
Ariane H10+ 4.1 14:35:34 10° WSW 14:42:08 53° S 14:44:45 47° SE
Maqsat-H 4.2 22:01:40 17° E 22:01:40 17° E 22:02:29 10° E
ATLAS 3B R/B 4.2 22:07:53 22° NNE 22:07:53 22° NNE 22:09:59 10° NNE
Cosmos 1634 Rocket 4.1 22:16:44 68° NE 22:17:21 74° E 22:23:34 10° S
Meteor 2-10 4.3 22:24:00 65° NE 22:24:25 68° E 22:29:59 10° SSE
Ariane H10-3 4.2 22:32:03 26° S 22:32:03 26° S 22:34:02 10° SE
Ariane H10 3.2 22:35:21 64° SSW 22:35:49 68° S 22:50:28 10° E
ARIANE 5 DEB (SYLDA) 4.5 22:36:20 27° SSE 22:36:20 27° SSE 22:40:17 10° ESE
FUSE 4.5 22:41:52 43° N 22:41:52 43° N 22:46:16 10° NE
Cosmos 44 3.5 22:46:05 61° WSW 22:46:05 61° WSW 22:51:11 10° S
ADEOS 3.6 22:42:35 10° NNE 22:47:47 78° ESE 22:53:00 10° S
Delta 7925 Rocket 4.1 22:46:13 51° W 22:47:53 68° SSW 22:55:58 10° SE
Meteor 1-24 Rocket 4.5 22:42:54 10° S 22:48:07 51° E 22:53:29 10° NNE
EPKM 3.9 22:47:46 48° NNW 22:48:16 50° N 23:02:07 10° ENE
deb Chang Zheng 4 4.0 22:45:54 10° NNE 22:50:06 61° ESE 22:54:20 10° S
Cosmos 1356 Rocket 3.8 22:49:29 23° N 22:51:54 61° E 22:55:55 10° SSE
SL-14 R/B 3.7 22:48:11 10° S 22:52:02 61° E 22:55:55 10° NNE
Cosmos 1092 Rocket 4.5 22:50:27 10° S 22:56:28 60° E 23:02:30 10° NNE
Cosmos 2082 Rocket 2.3 22:56:40 45° W 22:57:24 48° WNW 23:02:47 10° N
Nadezhda 4 Rocket 3.9 22:55:56 10° SSW 23:01:58 62° W 23:07:59 10° N
SEDSat Delta rocket 2.6 23:01:44 64° WNW 23:02:20 90° SSE 23:06:22 10° ESE
Meteor 2-13 Rocket 4.4 22:59:25 10° S 23:05:35 89° W 23:11:44 10° N
ARIANE 5 R/B 4.2 23:05:06 22° SW 23:07:01 32° S 23:14:22 10° ESE
SL-19 R/B 3.7 23:05:36 10° NNE 23:08:36 84° ESE 23:11:59 10° SSW
Cosmos 1626 3.7 23:05:35 10° SSW 23:07:02 22° SSW 23:07:02 22° SSW
Delta 168 4.3 23:11:01 17° N 23:12:06 19° NNE 23:14:52 10° ENE
Cosmos 292 Rocket 4.0 23:08:34 10° N 23:13:23 70° ENE 23:18:11 10° SSE
METEOR-M 4.0 23:08:08 10° N 23:13:27 77° WNW 23:18:47 10° SSW
Cosmos 1953 2.5 23:13:09 36° NW 23:14:16 46° W 23:18:09 10° SSW
Meteor 2-5 Rocket 3.7 23:09:06 10° SSW 23:14:32 55° W 23:20:03 10° N
Meteor 1-16 Rocket 4.0 23:12:35 10° NNW 23:17:52 71° W 23:23:18 10° S
Cosmos 2180 Rocket 4.4 23:16:37 10° NNW 23:22:40 62° W 23:28:43 10° S
ARGOS Delta rocket 4.1 23:22:48 10° N 23:28:17 80° W 23:33:41 10° SSW
CZ-4B R/B 2.7 23:25:40 10° SSE 23:28:57 43° ENE 23:32:13 10° N
Cosmos 1484 Rocket 3.6 23:27:40 10° NNW 23:30:48 25° WNW 23:33:55 10° SW
SPELTRA 3.4 23:28:48 18° WSW 23:31:30 69° S 23:41:22 10° E
Cosmos 2251 Rocket 4.4 23:27:48 10° SW 23:32:14 27° WNW 23:36:41 10° NNW
GPS 2-15 Rocket1 3.2 23:28:44 19° WSW 23:32:15 76° NNW 23:37:12 10° ENE
Sakura Rocket 4.3 23:24:02 12° WSW 23:32:19 72° NNW 23:38:37 10° NE
Cosmos 614 Rocket 4.0 23:31:12 10° SSW 23:36:18 58° WNW 23:41:22 10° N
Cosmos 1697 Rocket 4.4 23:36:22 10° N 23:41:28 34° ENE 23:46:32 10° SE
SL-27 R/B 4.3 23:41:06 10° S 23:44:21 36° E 23:47:38 10° NNE
ATLAS CENTAUR R/B 1.3 23:40:50 10° SSW 23:45:05 61° WNW 23:49:04 10° NNE
X-37B 2.3 23:43:47 10° SSW 23:46:43 35° SE 23:49:40 10° ENE
CZ-4B R/B 3.2 23:42:51 10° N 23:47:01 53° WNW 23:51:19 10° SSW
Ariane H10 0.3 23:47:14 19° WSW 23:48:01 42° S 23:49:46 10° E
H-2A R/B 3.3 23:45:23 10° SSW 23:48:55 23° W 23:52:25 10° NW
ALOS 3.6 23:46:37 10° NNW 23:49:50 19° WNW 23:53:02 10° WSW
ARIANE 5 R/B 3.6 23:49:00 10° SW 23:51:31 31° SSE 23:59:25 10° E
Cosmos 2228 3.0 23:47:55 10° N 23:52:18 86° W 23:56:41 10° S
Meteor PRIRODA 3.8 23:48:49 10° N 23:52:21 48° WNW 23:55:54 10° SSW
Meteor 1-31 Rocket 4.2 23:52:31 10° NW 23:55:08 17° WNW 23:57:44 10° WSW
